Time,TemperatureF,DewpointF,PressureIn,WindDirection,WindDirectionDegrees,WindSpeedMPH,WindSpeedGustMPH,Humidity,HourlyPrecipIn,Conditions,Clouds,dailyrainin,SoftwareType,DateUTC
2013-04-18 00:02:00,35.0,14.0,-100.00,North,-999,-999.0,-999.0,41,-99.99,,,-99.99,,2013-04-18 07:02:00,
2013-04-18 00:12:00,35.0,14.0,-100.00,North,-999,-999.0,-999.0,41,-99.99,,,-99.99,,2013-04-18 07:12:00,
2013-04-18 00:22:00,35.0,14.0,-100.00,North,-999,-999.0,-999.0,41,-99.99,,,-99.99,,2013-04-18 07:22:00,
2013-04-18 00:32:00,31.0,13.0,-100.00,North,-999,-999.0,-999.0,46,-99.99,,,-99.99,,2013-04-18 07:32:00,
2013-04-18 00:42:00,31.0,13.0,-100.00,North,-999,-999.0,-999.0,46,-99.99,,,-99.99,,2013-04-18 07:42:00,
2013-04-18 00:52:00,31.0,13.0,-100.00,North,-999,-999.0,-999.0,46,-99.99,,,-99.99,,2013-04-18 07:52:00,
2013-04-18 01:02:00,30.0,13.0,-100.00,North,-999,-999.0,-999.0,49,-99.99,,,-99.99,,2013-04-18 08:02:00,
2013-04-18 01:12:00,30.0,13.0,-100.00,North,-999,-999.0,-999.0,49,-99.99,,,-99.99,,2013-04-18 08:12:00,
2013-04-18 01:22:00,30.0,13.0,-100.00,North,-999,-999.0,-999.0,49,-99.99,,,-99.99,,2013-04-18 08:22:00,
2013-04-18 01:32:00,29.0,13.0,-100.00,North,-999,-999.0,-999.0,50,-99.99,,,0.00,,2013-04-18 08:32:00,
2013-04-18 01:42:00,29.0,13.0,-100.00,North,-999,-999.0,-999.0,50,-99.99,,,0.00,,2013-04-18 08:42:00,
2013-04-18 02:01:00,28.0,13.0,-100.00,North,-999,-999.0,-999.0,52,-99.99,,,-99.99,,2013-04-18 09:01:00,
2013-04-18 02:12:00,28.0,13.0,-100.00,North,-999,-999.0,-999.0,52,-99.99,,,-99.99,,2013-04-18 09:12:00,
2013-04-18 02:22:00,28.0,13.0,-100.00,North,-999,-999.0,-999.0,52,-99.99,,,-99.99,,2013-04-18 09:22:00,
2013-04-18 02:32:00,27.0,13.0,-100.00,North,-999,-999.0,-999.0,55,-99.99,,,-99.99,,2013-04-18 09:32:00,
2013-04-18 02:43:00,27.0,13.0,-100.00,North,-999,-999.0,-999.0,55,-99.99,,,-99.99,,2013-04-18 09:43:00,
2013-04-18 02:53:00,27.0,13.0,-100.00,North,-999,-999.0,-999.0,55,-99.99,,,-99.99,,2013-04-18 09:53:00,
2013-04-18 03:02:00,26.0,12.0,-100.00,North,-999,-999.0,-999.0,56,-99.99,,,-99.99,,2013-04-18 10:02:00,
2013-04-18 03:12:00,26.0,12.0,-100.00,North,-999,-999.0,-999.0,56,-99.99,,,-99.99,,2013-04-18 10:12:00,
2013-04-18 03:22:00,26.0,12.0,-100.00,North,-999,-999.0,-999.0,56,-99.99,,,-99.99,,2013-04-18 10:22:00,
2013-04-18 03:32:00,26.0,13.0,-100.00,North,-999,-999.0,-999.0,57,-99.99,,,-99.99,,2013-04-18 10:32:00,
2013-04-18 03:42:00,26.0,13.0,-100.00,North,-999,-999.0,-999.0,57,-99.99,,,-99.99,,2013-04-18 10:42:00,
2013-04-18 03:52:00,26.0,13.0,-100.00,North,-999,-999.0,-999.0,57,-99.99,,,-99.99,,2013-04-18 10:52:00,
2013-04-18 04:02:00,25.0,13.0,-100.00,North,-999,-999.0,-999.0,59,-99.99,,,-99.99,,2013-04-18 11:02:00,
2013-04-18 04:32:00,25.0,13.0,-100.00,North,-999,-999.0,-999.0,59,-99.99,,,-99.99,,2013-04-18 11:32:00,
2013-04-18 04:42:00,25.0,13.0,-100.00,North,-999,-999.0,-999.0,59,-99.99,,,-99.99,,2013-04-18 11:42:00,
2013-04-18 04:52:00,25.0,13.0,-100.00,North,-999,-999.0,-999.0,59,-99.99,,,-99.99,,2013-04-18 11:52:00,
2013-04-18 05:02:00,24.0,13.0,-100.00,North,-999,-999.0,-999.0,63,-99.99,,,-99.99,,2013-04-18 12:02:00,
2013-04-18 05:12:00,24.0,13.0,-100.00,North,-999,-999.0,-999.0,63,-99.99,,,-99.99,,2013-04-18 12:12:00,
2013-04-18 05:22:00,24.0,13.0,-100.00,North,-999,-999.0,-999.0,63,-99.99,,,-99.99,,2013-04-18 12:22:00,
2013-04-18 05:32:00,24.0,13.0,-100.00,North,-999,-999.0,-999.0,63,-99.99,,,-99.99,,2013-04-18 12:32:00,
2013-04-18 05:42:00,24.0,13.0,-100.00,North,-999,-999.0,-999.0,63,-99.99,,,-99.99,,2013-04-18 12:42:00,
2013-04-18 05:52:00,24.0,13.0,-100.00,North,-999,-999.0,-999.0,63,-99.99,,,-99.99,,2013-04-18 12:52:00,
2013-04-18 06:02:00,24.0,15.0,-100.00,North,-999,-999.0,-999.0,67,-99.99,,,-99.99,,2013-04-18 13:02:00,
2013-04-18 06:12:00,24.0,15.0,-100.00,North,-999,-999.0,-999.0,67,-99.99,,,-99.99,,2013-04-18 13:12:00,
2013-04-18 06:22:00,24.0,15.0,-100.00,North,-999,-999.0,-999.0,67,-99.99,,,-99.99,,2013-04-18 13:22:00,
2013-04-18 06:32:00,24.0,15.0,-100.00,North,-999,-999.0,-999.0,67,-99.99,,,-99.99,,2013-04-18 13:32:00,
2013-04-18 06:42:00,24.0,15.0,-100.00,North,-999,-999.0,-999.0,67,-99.99,,,-99.99,,2013-04-18 13:42:00,
2013-04-18 07:02:00,24.0,14.0,-100.00,North,-999,-999.0,-999.0,66,-99.99,,,-99.99,,2013-04-18 14:02:00,
2013-04-18 07:12:00,24.0,14.0,-100.00,North,-999,-999.0,-999.0,66,-99.99,,,-99.99,,2013-04-18 14:12:00,
2013-04-18 07:22:00,24.0,14.0,-100.00,North,-999,-999.0,-999.0,66,-99.99,,,-99.99,,2013-04-18 14:22:00,
2013-04-18 07:32:00,25.0,14.0,-100.00,North,-999,-999.0,-999.0,62,-99.99,,,-99.99,,2013-04-18 14:32:00,
2013-04-18 07:43:00,25.0,14.0,-100.00,North,-999,-999.0,-999.0,62,-99.99,,,-99.99,,2013-04-18 14:43:00,
2013-04-18 07:52:00,25.0,14.0,-100.00,North,-999,-999.0,-999.0,62,-99.99,,,-99.99,,2013-04-18 14:52:00,
2013-04-18 08:02:00,35.0,14.0,-100.00,North,-999,-999.0,-999.0,42,-99.99,,,-99.99,,2013-04-18 15:02:00,
2013-04-18 08:12:00,35.0,14.0,-100.00,North,-999,-999.0,-999.0,42,-99.99,,,-99.99,,2013-04-18 15:12:00,
2013-04-18 08:22:00,35.0,14.0,-100.00,North,-999,-999.0,-999.0,42,-99.99,,,-99.99,,2013-04-18 15:22:00,
2013-04-18 08:33:00,53.0,11.0,-100.00,North,-999,-999.0,-999.0,18,-99.99,,,-99.99,,2013-04-18 15:33:00,
2013-04-18 08:43:00,53.0,11.0,-100.00,North,-999,-999.0,-999.0,18,-99.99,,,-99.99,,2013-04-18 15:43:00,
2013-04-18 08:53:00,53.0,11.0,-100.00,North,-999,-999.0,-999.0,18,-99.99,,,-99.99,,2013-04-18 15:53:00,
2013-04-18 09:03:00,55.0,11.0,-100.00,North,-999,-999.0,-999.0,17,-99.99,,,-99.99,,2013-04-18 16:03:00,
2013-04-18 09:13:00,55.0,11.0,-100.00,North,-999,-999.0,-999.0,17,-99.99,,,-99.99,,2013-04-18 16:13:00,
2013-04-18 09:22:00,55.0,11.0,-100.00,North,-999,-999.0,-999.0,17,-99.99,,,-99.99,,2013-04-18 16:22:00,
2013-04-18 09:33:00,56.0,12.0,-100.00,North,-999,-999.0,-999.0,17,-99.99,,,-99.99,,2013-04-18 16:33:00,
2013-04-18 09:43:00,56.0,12.0,-100.00,North,-999,-999.0,-999.0,17,-99.99,,,-99.99,,2013-04-18 16:43:00,
2013-04-18 09:52:00,56.0,12.0,-100.00,North,-999,-999.0,-999.0,17,-99.99,,,-99.99,,2013-04-18 16:52:00,
2013-04-18 10:03:00,58.0,-99.9,-100.00,North,-999,-999.0,-999.0,-999,-99.99,,,-99.99,,2013-04-18 17:03:00,
2013-04-18 10:13:00,58.0,-99.9,-100.00,North,-999,-999.0,-999.0,-999,-99.99,,,-99.99,,2013-04-18 17:13:00,
2013-04-18 10:23:00,58.0,-99.9,-100.00,North,-999,-999.0,-999.0,-999,-99.99,,,-99.99,,2013-04-18 17:23:00,
2013-04-18 10:33:00,58.0,-99.9,-100.00,North,-999,-999.0,-999.0,-999,-99.99,,,-99.99,,2013-04-18 17:33:00,
2013-04-18 11:02:00,59.0,11.0,-100.00,North,-999,-999.0,-999.0,15,-99.99,,,-99.99,,2013-04-18 18:02:00,
2013-04-18 11:12:00,59.0,11.0,-100.00,North,-999,-999.0,-999.0,15,-99.99,,,-99.99,,2013-04-18 18:12:00,
2013-04-18 11:22:00,59.0,11.0,-100.00,North,-999,-999.0,-999.0,15,-99.99,,,-99.99,,2013-04-18 18:22:00,
2013-04-18 11:32:00,61.0,13.0,-100.00,North,-999,-999.0,-999.0,15,-99.99,,,-99.99,,2013-04-18 18:32:00,
2013-04-18 11:43:00,61.0,13.0,-100.00,North,-999,-999.0,-999.0,15,-99.99,,,-99.99,,2013-04-18 18:43:00,
2013-04-18 11:52:00,61.0,13.0,-100.00,North,-999,-999.0,-999.0,15,-99.99,,,-99.99,,2013-04-18 18:52:00,
2013-04-18 12:02:00,61.0,13.0,-100.00,North,-999,-999.0,-999.0,15,-99.99,,,-99.99,,2013-04-18 19:02:00,
2013-04-18 12:32:00,64.0,12.0,-100.00,North,-999,-999.0,-999.0,13,-99.99,,,-99.99,,2013-04-18 19:32:00,
2013-04-18 12:42:00,64.0,12.0,-100.00,North,-999,-999.0,-999.0,13,-99.99,,,-99.99,,2013-04-18 19:42:00,
2013-04-18 12:52:00,64.0,12.0,-100.00,North,-999,-999.0,-999.0,13,-99.99,,,-99.99,,2013-04-18 19:52:00,
2013-04-18 13:02:00,68.0,15.0,-100.00,North,-999,-999.0,-999.0,13,-99.99,,,-99.99,,2013-04-18 20:02:00,
2013-04-18 13:12:00,68.0,15.0,-100.00,North,-999,-999.0,-999.0,13,-99.99,,,-99.99,,2013-04-18 20:12:00,
2013-04-18 13:22:00,68.0,15.0,-100.00,North,-999,-999.0,-999.0,13,-99.99,,,-99.99,,2013-04-18 20:22:00,
2013-04-18 13:32:00,67.0,19.0,-100.00,North,-999,-999.0,-999.0,16,-99.99,,,0.00,,2013-04-18 20:32:00,
2013-04-18 13:42:00,67.0,19.0,-100.00,North,-999,-999.0,-999.0,16,-99.99,,,0.00,,2013-04-18 20:42:00,
2013-04-18 13:52:00,67.0,19.0,-100.00,North,-999,-999.0,-999.0,16,-99.99,,,0.00,,2013-04-18 20:52:00,
2013-04-18 14:02:00,65.0,20.0,-100.00,North,-999,-999.0,-999.0,18,-99.99,,,-99.99,,2013-04-18 21:02:00,
2013-04-18 14:12:00,65.0,20.0,-100.00,North,-999,-999.0,-999.0,18,-99.99,,,-99.99,,2013-04-18 21:12:00,
2013-04-18 14:22:00,65.0,20.0,-100.00,North,-999,-999.0,-999.0,18,-99.99,,,-99.99,,2013-04-18 21:22:00,
2013-04-18 14:32:00,67.0,19.0,-100.00,North,-999,-999.0,-999.0,16,-99.99,,,-99.99,,2013-04-18 21:32:00,
2013-04-18 14:43:00,67.0,19.0,-100.00,North,-999,-999.0,-999.0,16,-99.99,,,-99.99,,2013-04-18 21:43:00,
2013-04-18 14:53:00,67.0,19.0,-100.00,North,-999,-999.0,-999.0,16,-99.99,,,-99.99,,2013-04-18 21:53:00,
2013-04-18 15:02:00,66.0,20.0,-100.00,North,-999,-999.0,-999.0,17,-99.99,,,-99.99,,2013-04-18 22:02:00,
2013-04-18 15:12:00,66.0,20.0,-100.00,North,-999,-999.0,-999.0,17,-99.99,,,-99.99,,2013-04-18 22:12:00,
2013-04-18 15:22:00,66.0,20.0,-100.00,North,-999,-999.0,-999.0,17,-99.99,,,-99.99,,2013-04-18 22:22:00,
2013-04-18 15:32:00,67.0,21.0,-100.00,North,-999,-999.0,-999.0,17,-99.99,,,-99.99,,2013-04-18 22:32:00,
2013-04-18 15:42:00,67.0,21.0,-100.00,North,-999,-999.0,-999.0,17,-99.99,,,-99.99,,2013-04-18 22:42:00,
2013-04-18 15:52:00,67.0,21.0,-100.00,North,-999,-999.0,-999.0,17,-99.99,,,-99.99,,2013-04-18 22:52:00,
2013-04-18 16:03:00,67.0,21.0,-100.00,North,-999,-999.0,-999.0,17,-99.99,,,-99.99,,2013-04-18 23:03:00,
2013-04-18 16:11:00,67.0,21.0,-100.00,North,-999,-999.0,-999.0,17,-99.99,,,-99.99,,2013-04-18 23:11:00,
2013-04-18 16:21:00,67.0,21.0,-100.00,North,-999,-999.0,-999.0,17,-99.99,,,-99.99,,2013-04-18 23:21:00,
2013-04-18 16:32:00,67.0,22.0,-100.00,North,-999,-999.0,-999.0,18,-99.99,,,-99.99,,2013-04-18 23:32:00,
2013-04-18 16:42:00,67.0,22.0,-100.00,North,-999,-999.0,-999.0,18,-99.99,,,-99.99,,2013-04-18 23:42:00,
2013-04-18 16:52:00,67.0,22.0,-100.00,North,-999,-999.0,-999.0,18,-99.99,,,-99.99,,2013-04-18 23:52:00,
2013-04-18 17:01:00,66.0,21.0,-100.00,North,-999,-999.0,-999.0,18,-99.99,,,-99.99,,2013-04-19 00:01:00,
2013-04-18 17:12:00,66.0,21.0,-100.00,North,-999,-999.0,-999.0,18,-99.99,,,-99.99,,2013-04-19 00:12:00,
2013-04-18 17:21:00,66.0,21.0,-100.00,North,-999,-999.0,-999.0,18,-99.99,,,-99.99,,2013-04-19 00:21:00,
2013-04-18 17:31:00,66.0,23.0,-100.00,North,-999,-999.0,-999.0,19,-99.99,,,-99.99,,2013-04-19 00:31:00,
2013-04-18 17:42:00,66.0,23.0,-100.00,North,-999,-999.0,-999.0,19,-99.99,,,-99.99,,2013-04-19 00:42:00,
2013-04-18 17:51:00,66.0,23.0,-100.00,North,-999,-999.0,-999.0,19,-99.99,,,-99.99,,2013-04-19 00:51:00,
2013-04-18 18:01:00,65.0,23.0,-100.00,North,-999,-999.0,-999.0,20,-99.99,,,-99.99,,2013-04-19 01:01:00,
2013-04-18 18:11:00,65.0,23.0,-100.00,North,-999,-999.0,-999.0,20,-99.99,,,-99.99,,2013-04-19 01:11:00,
2013-04-18 18:21:00,65.0,23.0,-100.00,North,-999,-999.0,-999.0,20,-99.99,,,-99.99,,2013-04-19 01:21:00,
2013-04-18 18:31:00,65.0,23.0,-100.00,North,-999,-999.0,-999.0,20,-99.99,,,-99.99,,2013-04-19 01:31:00,
2013-04-18 19:01:00,61.0,24.0,-100.00,North,-999,-999.0,-999.0,24,-99.99,,,-99.99,,2013-04-19 02:01:00,
2013-04-18 19:11:00,61.0,24.0,-100.00,North,-999,-999.0,-999.0,24,-99.99,,,-99.99,,2013-04-19 02:11:00,
2013-04-18 19:21:00,61.0,24.0,-100.00,North,-999,-999.0,-999.0,24,-99.99,,,-99.99,,2013-04-19 02:21:00,
2013-04-18 19:31:00,61.0,24.0,-100.00,North,-999,-999.0,-999.0,24,-99.99,,,-99.99,,2013-04-19 02:31:00,
2013-04-18 20:01:00,55.0,24.0,-100.00,North,-999,-999.0,-999.0,30,-99.99,,,-99.99,,2013-04-19 03:01:00,
2013-04-18 20:11:00,55.0,24.0,-100.00,North,-999,-999.0,-999.0,30,-99.99,,,-99.99,,2013-04-19 03:11:00,
2013-04-18 20:21:00,55.0,24.0,-100.00,North,-999,-999.0,-999.0,30,-99.99,,,-99.99,,2013-04-19 03:21:00,
2013-04-18 20:32:00,51.0,24.0,-100.00,North,-999,-999.0,-999.0,35,-99.99,,,-99.99,,2013-04-19 03:32:00,
2013-04-18 20:43:00,51.0,24.0,-100.00,North,-999,-999.0,-999.0,35,-99.99,,,-99.99,,2013-04-19 03:43:00,
2013-04-18 20:53:00,51.0,24.0,-100.00,North,-999,-999.0,-999.0,35,-99.99,,,-99.99,,2013-04-19 03:53:00,
2013-04-18 21:03:00,46.0,23.0,-100.00,North,-999,-999.0,-999.0,40,-99.99,,,-99.99,,2013-04-19 04:03:00,
2013-04-18 21:13:00,46.0,23.0,-100.00,North,-999,-999.0,-999.0,40,-99.99,,,-99.99,,2013-04-19 04:13:00,
2013-04-18 21:23:00,46.0,23.0,-100.00,North,-999,-999.0,-999.0,40,-99.99,,,-99.99,,2013-04-19 04:23:00,
2013-04-18 21:32:00,44.0,21.0,-100.00,North,-999,-999.0,-999.0,40,-99.99,,,-99.99,,2013-04-19 04:32:00,
2013-04-18 21:43:00,44.0,21.0,-100.00,North,-999,-999.0,-999.0,40,-99.99,,,-99.99,,2013-04-19 04:43:00,
2013-04-18 21:52:00,44.0,21.0,-100.00,North,-999,-999.0,-999.0,40,-99.99,,,-99.99,,2013-04-19 04:52:00,
2013-04-18 22:02:00,41.0,22.0,-100.00,North,-999,-999.0,-999.0,47,-99.99,,,-99.99,,2013-04-19 05:02:00,
2013-04-18 22:11:00,41.0,22.0,-100.00,North,-999,-999.0,-999.0,47,-99.99,,,-99.99,,2013-04-19 05:11:00,
2013-04-18 22:22:00,41.0,22.0,-100.00,North,-999,-999.0,-999.0,47,-99.99,,,-99.99,,2013-04-19 05:22:00,
2013-04-18 22:31:00,39.0,20.0,-100.00,North,-999,-999.0,-999.0,47,-99.99,,,-99.99,,2013-04-19 05:31:00,
2013-04-18 22:42:00,39.0,20.0,-100.00,North,-999,-999.0,-999.0,47,-99.99,,,-99.99,,2013-04-19 05:42:00,
2013-04-18 22:52:00,39.0,20.0,-100.00,North,-999,-999.0,-999.0,47,-99.99,,,-99.99,,2013-04-19 05:52:00,
2013-04-18 23:01:00,39.0,20.0,-100.00,North,-999,-999.0,-999.0,47,-99.99,,,-99.99,,2013-04-19 06:01:00,
2013-04-18 23:32:00,36.0,20.0,-100.00,North,-999,-999.0,-999.0,52,-99.99,,,-99.99,,2013-04-19 06:32:00,
2013-04-18 23:42:00,36.0,20.0,-100.00,North,-999,-999.0,-999.0,52,-99.99,,,-99.99,,2013-04-19 06:42:00,
2013-04-18 23:53:00,36.0,20.0,-100.00,North,-999,-999.0,-999.0,52,-99.99,,,-99.99,,2013-04-19 06:53:00,